COSMOS 2533

Last updated on Mon Oct 14 2024 00:02:41 GMT+0000 (Coordinated Universal Time)

1 43867U 18107A 24287.06292538 -.00000041 00000+0 00000+0 0 9997 2 43867 0.0311 91.3471 0000924 163.2949 220.1563 1.00275407 21300
UTC large
Height (km)
Speed (km/s)
/
Latitude / Longitude
Inclination (degrees)
Orbital Period (minutes)
Azimuth
Elevation
Range (km)
Doppler Factor

Next 0 passes for location: London (51.5072 / 0.1276)

Sorry there are no passes over London.